Other Public Products
Issued by NWS Charleston, SC

Current Version | Previous Version | Graphics & Text | Print | Product List | Glossary On
Versions: 1 2 3 4 5 6 7 8 9 10 11 12 13 14 15 16 17 18 19 20 21 22 23 24 25 26 27 28 29 30 31 32 33 34 35 36 37 38 39 40 41 42 43 44 45 46 47 48 49 50
000
FPUS82 KCHS 220227
OPUCHS

TEST...KCHS/KSAV Gateway Observations...TEST
National Weather Service Charleston SC
900 PM EST SAT JAN 21 2017

NOTE: "fair" indicates few or no clouds below 12,000 feet with no
significant weather and/or obstructions to visibility.

SCZ050-WAZ558-NCZ071-TXZ119-213-PAZ071-DCZ001-FLZ074-172-MI076-
NYZ176-178-MAZ016-IL014-TNZ027-NJZ106-GAZ044-MD014-220300-
...Gateway Observations for Charleston International...

CITY           SKY/WX    TMP DP  RH WIND       PRES   REMARKS
Chas Airport   CLOUDY    61  58  90 S13       29.69F
Seattle        CLOUDY    45  43  93 S5        29.51R
Charlotte      LGT RAIN  55  53  93 N7        29.67R FOG
Dallas DFW     CLOUDY    56  52  86 S5        29.43R
Dallas Love    CLOUDY    57  53  86 SE6       29.45R
Philladelphia  FOG       46  45  96 CALM      29.82S VSB 3/4
Wash National  FOG       49  48  97 N5        29.81S VSB 1
Baltimore      CLOUDY    45  45 100 S3        29.81S FOG
Miami          CLEAR     73  62  68 S6        29.90F
Detroit        MOCLDY    46  46 100 S3        29.63R FOG
Newark         FOG       46  45  96 W5        29.79F VSB 1
Laguardia      CLOUDY    48  45  89 CALM      29.80F FOG
J F K          FOG       45  45 100 S5        29.81F VSB 1/8
Boston Logan   CLOUDY    52  43  71 W7        29.76S
Ft. Lauderdale CLEAR     73  62  68 S7        29.89S
Chicago O`Hare CLEAR     46  41  82 W6        29.56R
Chicago Midway PTCLDY    51  42  71 SW5       29.57R
Houston Bush   MOCLDY    66  57  72 CALM      29.48R
Houston Hobby  MOCLDY    67  58  72 CALM      29.46S
Nashville      CLOUDY    59  49  69 CALM      29.65R
Atlanta        MOCLDY    59  57  93 CALM      29.68F

$$

GAZ044-118-TXZ119-213-NCZ071-DCZ001-MDZ014-506-PAZ021-071-NJZ106-
NYZ176-178-MAZ106-OHZ011-021-055-MIZ076-KYZ091-ILZ014-INZ047-
MNZ060-220300-
...Gateway Observations for Savannah International...

CITY           SKY/WX    TMP DP  RH WIND       PRES   REMARKS
Savannah Arpt  CLOUDY    61  58  90 S9        29.74R
Atlanta        MOCLDY    59  57  93 CALM      29.68F
Charlotte      LGT RAIN  55  53  93 N7        29.67R FOG
Dallas DFW     CLOUDY    56  52  86 S5        29.43R
Houston Bush   MOCLDY    66  57  72 CALM      29.48R
Wash National  FOG       49  48  97 N5        29.81S VSB 1
Wash Dulles    FOG       48  47  96 SE3       29.80R VSB 1/4
Baltimore      CLOUDY    45  45 100 S3        29.81S FOG
Philadelphia   FOG       46  45  96 CALM      29.82S VSB 3/4
Newark         FOG       46  45  96 W5        29.79F VSB 1
Laguardia      CLOUDY    48  45  89 CALM      29.80F FOG
J F K          FOG       45  45 100 S5        29.81F VSB 1/8
Boston         CLOUDY    52  43  71 W7        29.76S
Pittsburg      LGT RAIN  56  52  86 CALM      29.70F
Akron          LGT RAIN  55  50  83 S9        29.68S
Cleveland      LGT RAIN  59  50  72 S12       29.67F
Cincinnati     CLOUDY    57  53  86 S6        29.63S
Columbus       LGT RAIN  54  52  90 SE7       29.65S
Detroit        MOCLDY    46  46 100 S3        29.63R FOG
Chicago O`Hare CLEAR     46  41  82 W6        29.56R
Minneapolis    FOG       37  34  89 S3        29.51R VSB 1
Indianapolis   PTCLDY    56  49  77 S6        29.60R

$$




USA.gov is the U.S. government's official web portal to all federal, state and local government web resources and services.